Hourly Data Report for August 02, 2003

TORONTO CITY
ONTARIO

43°40'00.000" N
79°24'00.000" W
112.50 m
6158355
71508
XTO

Download Data

Hourly Data (August 2003)
Hourly Data Report for August 2, 2003
TIME
LST
Temp Definition
°C
Dew Point Definition
°C
Rel Hum Definition
%
Precip. Amount Definition
mm

Wind Dir Definition
10's deg

Wind Spd Definition
km/h
Visibility Definition
km
Stn Press Definition
kPa
Hmdx Definition


Wind Chill Definition


Weather Definition


00:00 19.5 18.7 95   LegendMM LegendMM LegendMM 100.08     LegendNANA
01:00 19.5 18.8 96   LegendMM LegendMM LegendMM 100.01     LegendNANA
02:00 19.6 19.0 96   LegendMM LegendMM LegendMM 100.01     LegendNANA
03:00 19.6 18.9 96   LegendMM LegendMM LegendMM 100.04     LegendNANA
04:00 19.6 19.0 96   LegendMM LegendMM LegendMM 100.04     LegendNANA
05:00 19.6 19.0 96   LegendMM LegendMM LegendMM 100.03     LegendNANA
06:00 19.6 19.0 96   LegendMM LegendMM LegendMM 100.06     LegendNANA
07:00 19.2 18.8 98   LegendMM LegendMM LegendMM 100.05     LegendNANA
08:00 19.1 18.8 98   LegendMM LegendMM LegendMM 100.11     LegendNANA
09:00 19.4 19.1 98   LegendMM LegendMM LegendMM 100.10     LegendNANA
10:00 19.7 19.3 98   LegendMM LegendMM LegendMM 100.10     LegendNANA
11:00 19.5 19.0 97   LegendMM LegendMM LegendMM 100.06     LegendNANA
12:00 19.8 19.3 97   LegendMM LegendMM LegendMM 100.03     LegendNANA
13:00 19.6 19.2 98   LegendMM LegendMM LegendMM 100.04     LegendNANA
14:00 19.8 19.5 98   LegendMM LegendMM LegendMM 100.05     LegendNANA
15:00 20.3 19.9 98   LegendMM LegendMM LegendMM 100.01 28   LegendNANA
16:00 20.8 20.5 98   LegendMM LegendMM LegendMM 99.98 29   LegendNANA
17:00 21.7 20.5 93   LegendMM LegendMM LegendMM 99.93 30   LegendNANA
18:00 21.2 19.9 92   LegendMM LegendMM LegendMM 99.98 29   LegendNANA
19:00 20.9 20.0 95   LegendMM LegendMM LegendMM 100.01 28   LegendNANA
20:00 20.4 19.6 95   LegendMM LegendMM LegendMM 100.01 28   LegendNANA
21:00 20.1 19.5 96   LegendMM LegendMM LegendMM 100.04 27   LegendNANA
22:00 19.7 19.2 97   LegendMM LegendMM LegendMM 100.10     LegendNANA
23:00 19.3 19.0 98   LegendMM LegendMM LegendMM 100.07     LegendNANA

Notes on Data Quality.

Legend

  • E = Estimated
  • M = Missing
  • NA = Not Available*
  • [empty] = Indicates an unobserved value
Date modified: